Weather History for KLEB - November, 2012

Change the Weather History Date:

Saturday, November 17, 2012

  Actual Average Record
Temperature  
Mean Temperature 32 °F -  
Max Temperature 46 °F 43 °F 69 °F (2006)
Min Temperature 19 °F 25 °F 3 °F (1933)
Degree Days  
Heating Degree Days 32    
Moisture  
Dew Point 22 °F    
Average Humidity 76    
Maximum Humidity 89    
Minimum Humidity 42    
Precipitation  
Precipitation 0.00 in - - ()
Sea Level Pressure  
Sea Level Pressure 30.62 in    
Wind  
Wind Speed 0 mph (North)    
Max Wind Speed 4 mph    
Max Gust Speed -    
Visibility 10 miles    
Events      
Averages and records for this station are not official NWS values.
T = Trace of Precipitation, MM = Missing Value Source: NWS Daily Summary

Daily Weather History Graph

Daily Weather History Graph

Search for Another Location

Airport or City:

Trip Planner

Search our weather history database for the weather conditions in past years. The results will help you decide how hot, cold, wet, or windy it might be!

Date:

Astronomy

Nov. 17, 2012 Rise Set
Actual Time 6:46 AM EST 4:21 PM EST
Civil Twilight 6:15 AM EST 4:52 PM EST
Nautical Twilight 5:40 AM EST 5:27 PM EST
Astronomical Twilight 5:06 AM EST 6:01 PM EST
Moon 10:29 AM EST (11/17) 8:28 PM EST (11/17)
Length of Visible Light 10h 37m
Length of Day
9h 35m
Waxing Crescent, 20% of the Moon is Illuminated
Nov 17
Waxing Crescent
Nov 20
First Quarter
Nov 28
Full
Dec 6
Last Quarter
Dec 13
New

Hourly Weather History & Observations

Time (EST) Temp. Windchill Dew Point Humidity Pressure Visibility Wind Dir Wind Speed Gust Speed Precip Events Conditions
12:53 AM 24.1 °F - 19.9 °F 84% 30.50 in 10.0 mi Calm Calm - N/A   Clear
1:18 AM 24.8 °F - 21.2 °F 86% 30.48 in 10.0 mi Calm Calm - N/A   Mostly Cloudy
1:46 AM 24.8 °F - 21.2 °F 86% 30.48 in 10.0 mi Calm Calm - N/A   Scattered Clouds
1:53 AM 25.0 °F - 21.9 °F 88% 30.51 in 10.0 mi Calm Calm - N/A   Partly Cloudy
2:53 AM 23.0 °F - 19.0 °F 85% 30.53 in 10.0 mi Calm Calm - N/A   Clear
3:53 AM 23.0 °F - 19.9 °F 88% 30.54 in 10.0 mi Calm Calm - N/A   Clear
4:53 AM 19.9 °F - 16.0 °F 85% 30.58 in 10.0 mi Calm Calm - N/A   Clear
5:53 AM 19.9 °F - 17.1 °F 89% 30.60 in 10.0 mi Calm Calm - N/A   Clear
7:53 AM 23.0 °F - 19.9 °F 88% 30.65 in 10.0 mi Calm Calm - N/A   Clear
8:53 AM 28.9 °F 25.2 °F 24.1 °F 82% 30.65 in 9.0 mi NE 3.5 mph - N/A   Clear
9:53 AM 34.0 °F - 27.0 °F 75% 30.66 in 10.0 mi Calm Calm - N/A   Clear
10:11 AM 35.6 °F - 28.4 °F 75% 30.63 in 10.0 mi Calm Calm - N/A   Mostly Cloudy
10:53 AM 39.0 °F - 28.0 °F 65% 30.65 in 10.0 mi Calm Calm - N/A   Scattered Clouds
11:53 AM 42.1 °F 40.2 °F 27.0 °F 55% 30.62 in 10.0 mi WNW 3.5 mph - N/A   Clear
12:53 PM 43.0 °F - 27.0 °F 53% 30.61 in 10.0 mi Calm Calm - N/A   Clear
1:53 PM 44.1 °F - 25.0 °F 47% 30.61 in 10.0 mi Calm Calm - N/A   Clear
2:53 PM 46.0 °F - 24.1 °F 42% 30.61 in 10.0 mi Calm Calm - N/A   Clear
3:53 PM 39.9 °F - 26.1 °F 58% 30.62 in 10.0 mi Calm Calm - N/A   Clear
4:53 PM 30.9 °F - 24.1 °F 76% 30.64 in 10.0 mi Calm Calm - N/A   Clear
5:53 PM 28.0 °F - 21.9 °F 78% 30.67 in 10.0 mi Calm Calm - N/A   Clear
6:53 PM 26.1 °F - 21.0 °F 81% 30.68 in 10.0 mi Calm Calm - N/A   Clear
7:53 PM 25.0 °F - 19.9 °F 81% 30.69 in 10.0 mi Calm Calm - N/A   Clear
8:53 PM 23.0 °F - 19.0 °F 85% 30.70 in 10.0 mi Calm Calm - N/A   Clear
9:53 PM 21.9 °F - 18.0 °F 85% 30.69 in 10.0 mi Calm Calm - N/A   Clear
10:53 PM 21.9 °F - 18.0 °F 85% 30.70 in 10.0 mi Calm Calm - N/A   Clear
11:53 PM 21.9 °F - 18.0 °F 85% 30.71 in 10.0 mi Calm Calm - N/A   Clear